[[{"header":{"parameterUnit":"m.s-1","parameterCategory":1,"la1":30.2991,"la2":30.254,"lo1":-89.0895,"lo2":-89.0444,"dy":0.0017,"dx":0.0017,"nx":28,"ny":28,"refTime":"2024-02-09T03:00:00:Z","depth":0,"parameterNumber":2,"parameterNumberName":"U-component_of_WINDS"},"data":[0,0,0,0,0,0,0,0,0,0,0,0,0,0,0,0,0,0,0,0,0,0,0,0,0,0,0,0,0,0,0,0,0,0,0,0,0,0,0,0,0,0,0,0,0,0,0,0,0,0,0,0,0,0,0,0,0,0,-3.1369,-3.1369,0,-3.1419,-3.1419,-3.142,-3.1387,-3.1386,-3.1384,-3.1383,-3.1435,-3.1438,-3.1441,0,0,0,0,0,0,0,0,0,0,0,0,0,-3.1247,-3.1249,-3.1369,-3.1369,-3.137,-3.1419,-3.1419,-3.142,-3.1388,-3.1386,-3.1384,-3.1382,-3.1434,-3.1437,-3.1441,0,0,0,0,0,0,0,0,0,0,0,0,0,-3.1299,-3.125,-3.1369,-3.136,-3.1359,-3.1418,-3.1419,-3.142,-3.1388,-3.1386,-3.1384,-3.1381,-3.1433,-3.1437,-3.1441,-3.1512,0,0,-3.1454,-3.1456,0,0,0,0,0,0,0,0,-3.1296,-3.1303,-3.136,-3.136,-3.136,-3.1394,-3.1395,-3.1451,-3.1389,-3.1377,-3.1383,-3.138,-3.1423,-3.1428,-3.1443,-3.1515,-3.1517,-3.1454,-3.1457,-3.1459,-3.146,0,0,0,0,0,0,0,-3.1292,-3.1301,-3.1388,-3.1361,-3.1361,-3.1354,-3.1359,-3.1406,-3.1412,-3.1378,-3.1376,-3.1382,-3.1423,-3.1439,-3.1444,-3.1518,-3.1454,-3.1458,-3.1461,-3.1462,-3.1651,-3.1653,0,0,0,0,0,0,-3.1289,-3.1298,-3.1387,-3.139,-3.1322,-3.1358,-3.1363,-3.1386,-3.1412,-3.1414,-3.1384,-3.138,-3.1433,-3.1439,-3.1445,-3.153,-3.1459,-3.1463,-3.1465,-3.1648,-3.1651,-3.1654,0,0,0,0,0,0,-3.1287,-3.1298,-3.1385,-3.1344,-3.1354,-3.1362,-3.1388,-3.1388,-3.1403,-3.1416,-3.1417,-3.1399,-3.1431,-3.1439,-3.1496,-3.1531,-3.1465,-3.1468,-3.1645,-3.1649,-3.1653,-3.17,0,0,0,0,0,0,-3.1283,-3.1297,-3.1323,-3.1344,-3.1356,-3.1434,-3.139,-3.1391,-3.1411,-3.1406,-3.143,-3.1432,-3.143,-3.149,-3.15,-3.1536,-3.1472,-3.1642,-3.1647,-3.1652,-3.1695,-3.1705,-3.1713,0,0,0,0,0,-3.1279,-3.1335,-3.1325,-3.1336,-3.139,-3.1436,-3.1443,-3.1439,-3.1414,-3.1441,-3.1449,-3.1431,-3.1526,-3.1496,-3.1507,-3.1545,-3.164,-3.1646,-3.1651,-3.1691,-3.1703,-3.1713,0,0,0,0,0,0,-3.1317,-3.1337,-3.1326,-3.139,-3.1412,-3.1431,-3.1464,-3.1452,-3.1481,-3.1476,-3.147,-3.1476,-3.1535,-3.1546,-3.1512,-3.1615,-3.1579,-3.1587,-3.1605,-3.1617,-3.1625,-3.1621,-3.1475,0,0,0,0,0,-3.1333,-3.1369,-3.1385,-3.1439,-3.1451,-3.1456,-3.1476,-3.1471,-3.1493,-3.1502,-3.1515,-3.1537,-3.1572,-3.1595,-3.1628,-3.1697,-3.1702,-3.1729,-3.1737,-3.1745,-3.1751,-3.1789,-3.1801,-3.1673,-3.1673,-3.1672,0,0,-3.1366,-3.1382,-3.1404,-3.1448,-3.1464,-3.1501,-3.1464,-3.1505,-3.1533,-3.1509,-3.1562,-3.1573,-3.1598,-3.1661,-3.1689,-3.1671,-3.1788,-3.1752,-3.1758,-3.176,-3.1796,-3.1808,-3.1819,-3.1676,-3.1676,-3.1675,0,0,-3.1446,-3.1461,-3.1508,-3.1525,-3.155,-3.1553,-3.1565,-3.1586,-3.1592,-3.1646,-3.1629,-3.1662,-3.1723,-3.1741,-3.1758,-3.1846,-3.1831,-3.1857,-3.1903,-3.194,-3.195,-3.1959,-3.199,-3.2001,-3.1864,-3.1864,-3.1865,0,-3.1483,-3.1539,-3.1534,-3.1577,-3.1596,-3.1577,-3.1625,-3.1642,-3.1677,-3.1691,-3.1671,-3.1746,-3.1762,-3.1829,-3.185,-3.1865,-3.1878,-3.1854,-3.1949,-3.1958,-3.1966,-3.1996,-3.2007,-3.1867,-3.1867,-3.1867,-3.1866,0,-3.1584,-3.1623,-3.1658,-3.1692,-3.1716,-3.1761,-3.1764,-3.1789,-3.1783,-3.1788,-3.1844,-3.1862,-3.1898,-3.1914,-3.1908,-3.1981,-3.1969,-3.1949,-3.1913,-3.1981,-3.2009,-3.202,-3.1872,-3.1871,-3.187,-3.1869,0,0,-3.1687,-3.1718,-3.1731,-3.1747,-3.1773,-3.1804,-3.1849,-3.1884,-3.1905,-3.1931,-3.1968,-3.202,-3.2002,-3.2022,-3.2019,-3.2051,-3.2119,-3.2027,-3.2028,-3.2043,-3.22,-3.2214,-3.2227,-3.211,-3.2112,-3.2114,-3.2198,0,-3.1767,-3.1844,-3.1842,-3.1915,-3.1951,-3.1934,-3.1973,-3.1994,-3.2001,-3.2033,-3.2041,-3.2078,-3.2052,-3.2063,-3.2095,-3.2104,-3.2151,-3.2098,-3.2145,-3.2147,-3.2138,-3.2242,-3.2256,-3.2334,-3.2209,-3.2211,-3.2212,0,-3.187,-3.1898,-3.1975,-3.1997,-3.2012,-3.2047,-3.2079,-3.211,-3.2135,-3.2137,-3.216,-3.2152,-3.2198,-3.2162,-3.2226,-3.2191,-3.221,-3.2218,-3.2221,-3.2224,-3.2182,-3.2247,-3.2359,-3.2371,-3.2229,-3.2228,-3.2226,0,-3.1937,-3.1994,-3.2047,-3.2061,-3.2088,-3.2113,-3.2126,-3.2148,-3.217,-3.2199,-3.2213,-3.2247,-3.2266,-3.2293,-3.2294,-3.2268,-3.2359,-3.2323,-3.2363,-3.2363,-3.2381,-3.238,-3.2498,-3.2396,-3.2396,-3.2395,-3.2395,0,-3.2025,-3.2072,-3.2077,-3.211,-3.2162,-3.216,-3.2212,-3.2223,-3.2243,-3.2277,-3.2266,-3.2298,-3.2299,-3.2333,-3.2335,-3.2387,-3.2396,-3.24,-3.24,-3.24,-3.24,-3.2412,-3.2406,-3.2399,-3.2398,-3.2397,-3.2397,0,-3.2108,-3.2113,-3.2169,-3.2191,-3.2198,-3.2236,-3.2254,-3.2286,-3.2292,-3.2336,-3.2347,-3.2357,-3.2396,-3.2401,-3.2447,-3.2449,-3.2512,-3.2506,-3.2503,-3.2502,-3.2542,-3.2538,-3.267,-3.2688,-3.2576,-3.2577,-3.2578,0,-3.2163,-3.2199,-3.2225,-3.2247,-3.2261,-3.2297,-3.232,-3.232,-3.2343,-3.2374,-3.2402,-3.244,-3.247,-3.2535,-3.2546,-3.2582,-3.2577,-3.2621,-3.2582,-3.2582,-3.2576,-3.2574,-3.2577,-3.2628,-3.2629,-3.263,-3.2631,0,-3.2262,-3.2263,-3.2295,-3.2329,-3.2355,-3.2382,-3.2407,-3.2426,-3.2429,-3.2457,-3.2497,-3.252,-3.2568,-3.2606,-3.2641,-3.2655,-3.2644,-3.2643,-3.2654,-3.2655,-3.2651,-3.2653,-3.2523,-3.264,-3.2639,-3.2638,-3.2638,-3.2637,-3.2332,-3.2363,-3.2386,-3.2423,-3.2441,-3.2465,-3.2496,-3.2507,-3.254,-3.2578,-3.2576,-3.2621,-3.2645,-3.2691,-3.2708,-3.2743,-3.2728,-3.2744,-3.2748,-3.2752,-3.2755,-3.2647,-3.2749,-3.2749,-3.2749,-3.2749,-3.2748,0,-3.2428,-3.2443,-3.2477,-3.2512,-3.2541,-3.2529,-3.2556,-3.2581,-3.262,-3.2644,-3.2674,-3.272,-3.2758,-3.2773,-3.281,-3.2835,-3.2831,-3.2845,-3.2842,-3.2846,-3.2767,-3.2753,-3.2848,-3.2848,-3.2848,-3.2848,-3.2848,-3.2848,-3.2482,-3.2534,-3.2538,-3.26,-3.2614,-3.2657,-3.2674,-3.2696,-3.2715,-3.2767,-3.2798,-3.2808,-3.2829,-3.2867,-3.2901,-3.2905,-3.2919,-3.2935,-3.2936,-3.2861,-3.2851,-3.2842,-3.2829,-3.2938,-3.2938,-3.3012,-3.3013,-3.3014]},{"header":{"parameterUnit":"m.s-1","parameterCategory":1,"la1":30.2991,"la2":30.254,"lo1":-89.0895,"lo2":-89.0444,"dy":0.0017,"dx":0.0017,"nx":28,"ny":28,"refTime":"2024-02-09T03:00:00:Z","depth":0,"parameterNumber":3,"parameterNumberName":"V-component_of_WINDS"},"data":[0,0,0,0,0,0,0,0,0,0,0,0,0,0,0,0,0,0,0,0,0,0,0,0,0,0,0,0,0,0,0,0,0,0,0,0,0,0,0,0,0,0,0,0,0,0,0,0,0,0,0,0,0,0,0,0,0,0,1.4027,1.4028,0,1.4102,1.4103,1.4104,1.4128,1.4127,1.4127,1.4126,1.4204,1.4206,1.4209,0,0,0,0,0,0,0,0,0,0,0,0,0,1.3907,1.3909,1.4027,1.4028,1.4029,1.4102,1.4103,1.4104,1.4128,1.4127,1.4127,1.4126,1.4203,1.4206,1.4209,0,0,0,0,0,0,0,0,0,0,0,0,0,1.3968,1.3909,1.4027,1.4049,1.4052,1.4102,1.4103,1.4104,1.4128,1.4127,1.4127,1.4126,1.4202,1.4206,1.4209,1.4242,0,0,1.422,1.4222,0,0,0,0,0,0,0,0,1.3964,1.3972,1.4045,1.4048,1.4051,1.4105,1.4089,1.415,1.4128,1.4099,1.4126,1.4126,1.4171,1.4178,1.4193,1.4246,1.4249,1.4221,1.4223,1.4224,1.4225,0,0,0,0,0,0,0,1.396,1.3969,1.4057,1.4046,1.405,1.4057,1.4065,1.4101,1.4137,1.4101,1.4103,1.4112,1.4173,1.4189,1.4195,1.425,1.422,1.4224,1.4226,1.4227,1.4336,1.4337,0,0,0,0,0,0,1.3952,1.3966,1.4054,1.4059,1.4006,1.4059,1.4068,1.4088,1.4137,1.4144,1.4112,1.4113,1.4183,1.4191,1.4198,1.4241,1.4224,1.4228,1.423,1.4336,1.4337,1.4337,0,0,0,0,0,0,1.3949,1.396,1.4051,1.4013,1.4025,1.4062,1.4084,1.409,1.4106,1.4145,1.4152,1.4122,1.4183,1.4193,1.4231,1.4244,1.4229,1.4232,1.4335,1.4336,1.4337,1.4327,0,0,0,0,0,0,1.3946,1.3958,1.397,1.4013,1.4027,1.4083,1.4085,1.4092,1.4112,1.4114,1.4156,1.4163,1.4184,1.4226,1.4235,1.4249,1.4235,1.4334,1.4335,1.4337,1.4326,1.4327,1.4329,0,0,0,0,0,1.3941,1.3964,1.3971,1.3981,1.4043,1.4084,1.4092,1.4115,1.4113,1.4126,1.4152,1.4161,1.4241,1.423,1.424,1.4255,1.4333,1.4335,1.4336,1.4326,1.4327,1.4329,0,0,0,0,0,0,1.3922,1.397,1.3978,1.4015,1.4045,1.4087,1.4104,1.4116,1.4147,1.4147,1.4175,1.4184,1.4222,1.4242,1.4228,1.4291,1.4288,1.4291,1.4276,1.4278,1.4279,1.4273,1.4238,0,0,0,0,0,1.3922,1.395,1.3991,1.402,1.4035,1.4067,1.4086,1.4101,1.4134,1.4146,1.4175,1.4206,1.4238,1.4259,1.4291,1.4329,1.434,1.4345,1.4346,1.4347,1.435,1.4375,1.4378,1.4343,1.4343,1.4343,0,0,1.3922,1.3952,1.3968,1.4017,1.4042,1.4072,1.4077,1.4108,1.4132,1.4151,1.419,1.4212,1.4249,1.4288,1.4307,1.4307,1.4362,1.4349,1.4349,1.4352,1.4377,1.438,1.4383,1.4344,1.4344,1.4344,0,0,1.3938,1.3963,1.3991,1.4016,1.4055,1.4076,1.4083,1.4124,1.414,1.4179,1.4196,1.4224,1.4278,1.4305,1.4325,1.4354,1.4365,1.4364,1.437,1.4394,1.4397,1.4399,1.4412,1.4415,1.4367,1.4367,1.4367,0,1.3934,1.3979,1.4004,1.4035,1.4057,1.4077,1.4106,1.413,1.4176,1.4192,1.419,1.4261,1.4287,1.4334,1.4342,1.4357,1.4367,1.4359,1.4394,1.4397,1.44,1.4412,1.4416,1.4367,1.4367,1.4367,1.4367,0,1.3973,1.4005,1.4023,1.4068,1.4092,1.4122,1.4152,1.4174,1.4188,1.421,1.4252,1.4284,1.4324,1.4336,1.435,1.4386,1.4385,1.4388,1.4386,1.4402,1.4415,1.4419,1.4366,1.4366,1.4366,1.4366,0,0,1.3978,1.4038,1.4044,1.4066,1.4111,1.4137,1.4168,1.4208,1.4227,1.4259,1.4287,1.4334,1.4339,1.4362,1.4379,1.44,1.4423,1.4401,1.4403,1.4406,1.4468,1.4466,1.4471,1.4431,1.4432,1.4432,1.4466,0,1.4001,1.4058,1.4083,1.4129,1.416,1.4181,1.4209,1.424,1.4262,1.4293,1.4317,1.4351,1.4353,1.4368,1.4389,1.4416,1.4437,1.4414,1.4459,1.446,1.445,1.4477,1.4474,1.4504,1.447,1.4471,1.4472,0,1.4035,1.4068,1.4118,1.4162,1.4176,1.42,1.424,1.4268,1.4305,1.432,1.4347,1.4364,1.44,1.4395,1.4446,1.443,1.445,1.4466,1.4468,1.4474,1.4468,1.4485,1.4514,1.4519,1.4479,1.4478,1.4478,0,1.4036,1.4093,1.4131,1.4149,1.42,1.4218,1.424,1.4276,1.4299,1.4334,1.4349,1.4387,1.4409,1.4438,1.4466,1.4459,1.4515,1.4512,1.453,1.4529,1.4541,1.454,1.4575,1.4552,1.4552,1.4552,1.4551,0,1.4059,1.4089,1.4132,1.4156,1.4191,1.422,1.4254,1.4278,1.431,1.434,1.436,1.4387,1.4421,1.4453,1.4475,1.4515,1.4524,1.4538,1.4544,1.4537,1.4536,1.4551,1.4551,1.4553,1.4552,1.4552,1.4552,0,1.4066,1.4095,1.4139,1.4184,1.4197,1.4221,1.4261,1.4285,1.4309,1.4346,1.4357,1.4395,1.4434,1.4464,1.4514,1.4529,1.4573,1.4578,1.456,1.4563,1.4581,1.4579,1.4628,1.4637,1.4606,1.4606,1.4606,0,1.4079,1.4103,1.4152,1.4174,1.4196,1.423,1.4254,1.4284,1.4308,1.4354,1.4373,1.4414,1.4448,1.451,1.4543,1.4582,1.459,1.4604,1.4596,1.4589,1.4592,1.4591,1.4595,1.4605,1.4605,1.4605,1.4606,0,1.4101,1.4115,1.4149,1.4189,1.4217,1.425,1.4283,1.43,1.4336,1.4363,1.4403,1.443,1.4483,1.4524,1.4567,1.4591,1.4605,1.4608,1.4615,1.4609,1.4599,1.4606,1.4565,1.4607,1.4607,1.4607,1.4607,1.4607,1.4112,1.4136,1.4175,1.4213,1.4241,1.4272,1.4298,1.4326,1.4361,1.4407,1.4422,1.4465,1.4504,1.4564,1.4588,1.4623,1.4624,1.4632,1.4635,1.4637,1.4638,1.4592,1.4631,1.4631,1.4631,1.4631,1.4631,0,1.4136,1.4163,1.4198,1.4244,1.4275,1.4286,1.4324,1.4349,1.4386,1.4421,1.4455,1.4503,1.4544,1.4581,1.4623,1.4644,1.4652,1.4655,1.4654,1.466,1.4634,1.4625,1.4648,1.4648,1.4648,1.4648,1.4648,1.4648,1.4152,1.4193,1.4213,1.4269,1.4296,1.4338,1.4359,1.4389,1.4418,1.4471,1.4505,1.4529,1.4565,1.4611,1.465,1.4659,1.4675,1.4676,1.4688,1.4663,1.4661,1.4659,1.4651,1.4679,1.4679,1.4711,1.4712,1.4712]}]]